Weather History for Edinburg, TX

Change the Weather History Date:

Wednesday, April 16, 2014

  Actual Average (KMFE) Record (KMFE)
Temperature  
Mean Temperature 61 °F 77 °F  
Max Temperature 79 °F 87 °F 96 °F (1998)
Min Temperature 43 °F 66 °F 44 °F (2014)
Degree Days  
Heating Degree Days 4 0  
Month to date heating degree days 3  
Since 1 July heating degree days 574  
Cooling Degree Days 0 12  
Month to date cooling degree days 173  
Year to date cooling degree days 550  
Growing Degree Days 11 (Base 50)    
Moisture  
Dew Point 46 °F    
Average Humidity 57    
Maximum Humidity 84    
Minimum Humidity 34    
Precipitation  
Precipitation 0.00 in 0.05 in 1.76 in (2012)
Month to date precipitation 0.56  
Year to date precipitation 3.75  
Sea Level Pressure  
Sea Level Pressure 30.04 in    
Wind  
Wind Speed 6 mph (SE)    
Max Wind Speed 16 mph    
Max Gust Speed 23 mph    
Visibility 10 miles    
Events      
T = Trace of Precipitation, MM = Missing Value Source: NWS Daily Summary

Daily Weather History Graph

Daily Weather History Graph

Search for Another Location

Airport:

Trip Planner

Search our weather history database for the weather conditions in past years. The results will help you decide how hot, cold, wet, or windy it might be!

Date:

Astronomy

Apr. 16, 2014 Rise Set
Actual Time 7:07 AM CDT 7:56 PM CDT
Civil Twilight 6:44 AM CDT 8:20 PM CDT
Nautical Twilight 6:16 AM CDT 8:48 PM CDT
Astronomical Twilight 5:47 AM CDT 9:17 PM CDT
Moon 9:33 PM CDT (4/16) 8:02 AM CDT (4/16)
Length of Visible Light 13h 36m
Length of Day
12h 48m
Full, 98% of the Moon is Illuminated
Apr 16
Full
Apr 22
Last Quarter
Apr 29
New
May 6
First Quarter
May 14
Full

Hourly Weather History & Observations

Time (CDT) Temp. Dew Point Humidity Pressure Visibility Wind Dir Wind Speed Gust Speed Precip Events Conditions
12:15 AM 48.6 °F 37.0 °F 64% 30.18 in 10.0 mi ESE 4.6 mph - N/A   Clear
12:35 AM 48.4 °F 37.0 °F 65% 30.17 in 10.0 mi ESE 4.6 mph - N/A   Clear
12:55 AM 48.2 °F 37.9 °F 68% 30.17 in 10.0 mi ESE 3.5 mph - N/A   Clear
1:15 AM 47.8 °F 38.3 °F 70% 30.16 in 10.0 mi ESE 3.5 mph - N/A   Clear
1:35 AM 46.9 °F 37.4 °F 69% 30.15 in 10.0 mi ESE 3.5 mph - N/A   Clear
1:55 AM 46.8 °F 38.1 °F 72% 30.15 in 10.0 mi ESE 3.5 mph - N/A   Clear
2:15 AM 47.5 °F 38.5 °F 71% 30.14 in 10.0 mi ESE 3.5 mph - N/A   Clear
2:35 AM 47.3 °F 39.2 °F 73% 30.14 in 10.0 mi South 4.6 mph - N/A   Clear
2:55 AM 47.1 °F 38.8 °F 73% 30.14 in 10.0 mi South 4.6 mph - N/A   Clear
3:15 AM 47.5 °F 38.7 °F 71% 30.14 in 10.0 mi Calm Calm - N/A   Clear
3:35 AM 47.3 °F 38.7 °F 72% 30.13 in 10.0 mi Calm Calm - N/A   Clear
3:55 AM 46.4 °F 38.5 °F 74% 30.12 in 10.0 mi Calm Calm - N/A   Clear
4:15 AM 46.0 °F 38.1 °F 74% 30.11 in 10.0 mi Calm Calm - N/A   Clear
4:35 AM 45.7 °F 38.3 °F 75% 30.11 in 10.0 mi Calm Calm - N/A   Clear
4:55 AM 45.9 °F 37.9 °F 74% 30.10 in 10.0 mi Calm Calm - N/A   Clear
5:15 AM 44.6 °F 37.9 °F 77% 30.09 in 10.0 mi Calm Calm - N/A   Clear
5:35 AM 43.9 °F 38.3 °F 81% 30.09 in 10.0 mi Calm Calm - N/A   Clear
5:55 AM 44.2 °F 38.7 °F 81% 30.09 in 10.0 mi Calm Calm - N/A   Clear
6:15 AM 44.6 °F 38.5 °F 79% 30.09 in 10.0 mi Calm Calm - N/A   Clear
6:35 AM 43.5 °F 37.9 °F 81% 30.10 in 10.0 mi Calm Calm - N/A   Clear
6:55 AM 43.0 °F 38.3 °F 84% 30.10 in 10.0 mi Calm Calm - N/A   Clear
7:15 AM 44.6 °F 39.2 °F 81% 30.10 in 10.0 mi Calm Calm - N/A   Clear
7:35 AM 45.5 °F 39.6 °F 80% 30.08 in 10.0 mi Calm Calm - N/A   Clear
7:55 AM 47.3 °F 41.0 °F 79% 30.10 in 10.0 mi Calm Calm - N/A   Clear
8:15 AM 50.2 °F 42.6 °F 75% 30.09 in 10.0 mi Calm Calm - N/A   Clear
8:35 AM 53.4 °F 45.0 °F 73% 30.09 in 10.0 mi SE 3.5 mph - N/A   Clear
8:55 AM 57.6 °F 46.0 °F 65% 30.10 in 10.0 mi Calm Calm - N/A   Clear
9:15 AM 60.3 °F 47.1 °F 62% 30.10 in 10.0 mi ESE 3.5 mph - N/A   Clear
9:35 AM 63.7 °F 48.0 °F 57% 30.10 in 10.0 mi SE 6.9 mph - N/A   Clear
9:55 AM 66.6 °F 48.6 °F 52% 30.10 in 10.0 mi SE 9.2 mph - N/A   Clear
10:15 AM 67.3 °F 48.7 °F 51% 30.10 in 10.0 mi SE 12.7 mph - N/A   Clear
10:35 AM 69.1 °F 48.2 °F 47% 30.11 in 10.0 mi SE 13.8 mph 18.4 mph N/A   Clear
10:55 AM 69.8 °F 47.8 °F 46% 30.11 in 10.0 mi ESE 12.7 mph 17.3 mph N/A   Scattered Clouds
11:15 AM 70.9 °F 46.6 °F 42% 30.11 in 10.0 mi SE 10.4 mph - N/A   Clear
11:35 AM 72.5 °F 47.5 °F 41% 30.10 in 10.0 mi SE 10.4 mph 18.4 mph N/A   Scattered Clouds
11:55 AM 72.1 °F 47.5 °F 41% 30.08 in 10.0 mi SE 11.5 mph 16.1 mph N/A   Clear
12:15 PM 73.6 °F 45.3 °F 36% 30.07 in 10.0 mi ESE 10.4 mph 19.6 mph N/A   Clear
12:35 PM 74.3 °F 45.9 °F 36% 30.06 in 10.0 mi SE 12.7 mph 19.6 mph N/A   Clear
12:55 PM 75.4 °F 45.5 °F 34% 30.05 in 10.0 mi SE 9.2 mph 18.4 mph N/A   Clear
1:15 PM 75.6 °F 46.2 °F 35% 30.04 in 10.0 mi SSE 12.7 mph 20.7 mph N/A   Clear
1:35 PM 76.8 °F 46.8 °F 34% 30.02 in 10.0 mi SE 13.8 mph 21.9 mph N/A   Scattered Clouds
1:55 PM 76.5 °F 46.8 °F 35% 30.01 in 10.0 mi SE 13.8 mph 21.9 mph N/A   Scattered Clouds
2:15 PM 76.8 °F 47.8 °F 36% 30.00 in 10.0 mi SSE 8.1 mph 21.9 mph N/A   Scattered Clouds
2:35 PM 75.7 °F 48.4 °F 38% 29.99 in 10.0 mi ESE 10.4 mph 18.4 mph N/A   Mostly Cloudy
2:55 PM 76.8 °F 48.9 °F 37% 29.98 in 10.0 mi SSE 9.2 mph 19.6 mph N/A   Scattered Clouds
3:15 PM 76.8 °F 48.9 °F 37% 29.97 in 10.0 mi SE 16.1 mph 20.7 mph N/A   Scattered Clouds
3:35 PM 77.5 °F 49.3 °F 37% 29.96 in 10.0 mi SE 13.8 mph 18.4 mph N/A   Mostly Cloudy
3:55 PM 78.8 °F 48.4 °F 34% 29.94 in 10.0 mi SSE 15.0 mph 21.9 mph N/A   Scattered Clouds
4:15 PM 79.0 °F 48.6 °F 34% 29.93 in 10.0 mi SSE 9.2 mph 23.0 mph N/A   Scattered Clouds
4:35 PM 78.3 °F 48.9 °F 36% 29.93 in 10.0 mi SE 12.7 mph 19.6 mph N/A   Scattered Clouds
4:55 PM 78.3 °F 48.9 °F 36% 29.92 in 10.0 mi SE 15.0 mph 19.6 mph N/A   Scattered Clouds
5:15 PM 78.1 °F 49.1 °F 36% 29.92 in 10.0 mi SSE 12.7 mph 18.4 mph N/A   Scattered Clouds
5:35 PM 77.5 °F 49.3 °F 37% 29.92 in 10.0 mi SSE 11.5 mph - N/A   Scattered Clouds
5:55 PM 76.5 °F 49.3 °F 38% 29.92 in 10.0 mi South 11.5 mph - N/A   Scattered Clouds
6:15 PM 75.6 °F 49.8 °F 40% 29.92 in 10.0 mi SSE 11.5 mph - N/A   Scattered Clouds
6:35 PM 75.9 °F 50.2 °F 40% 29.92 in 10.0 mi SSE 12.7 mph 17.3 mph N/A   Clear
6:55 PM 74.5 °F 50.5 °F 43% 29.92 in 10.0 mi SSE 13.8 mph 17.3 mph N/A   Scattered Clouds
7:15 PM 73.8 °F 50.7 °F 44% 29.92 in 10.0 mi SSE 11.5 mph - N/A   Scattered Clouds
7:35 PM 72.7 °F 51.6 °F 47% 29.92 in 10.0 mi ESE 13.8 mph - N/A   Mostly Cloudy
7:55 PM 72.0 °F 52.0 °F 49% 29.92 in 10.0 mi ESE 11.5 mph - N/A   Mostly Cloudy
8:15 PM 71.1 °F 52.2 °F 51% 29.93 in 10.0 mi SE 12.7 mph - N/A   Mostly Cloudy
8:35 PM 69.8 °F 52.9 °F 55% 29.93 in 10.0 mi ESE 8.1 mph - N/A   Scattered Clouds
8:55 PM 68.9 °F 53.6 °F 58% 29.94 in 10.0 mi ESE 9.2 mph - N/A   Clear
9:15 PM 68.4 °F 53.8 °F 60% 29.94 in 10.0 mi ESE 8.1 mph - N/A   Clear
9:35 PM 68.0 °F 53.8 °F 60% 29.96 in 10.0 mi ESE 6.9 mph - N/A   Clear
9:55 PM 67.6 °F 53.6 °F 61% 29.96 in 10.0 mi SE 6.9 mph - N/A   Clear
10:15 PM 68.0 °F 54.1 °F 61% 29.97 in 10.0 mi SE 9.2 mph - N/A   Clear
10:35 PM 68.0 °F 54.9 °F 63% 29.97 in 10.0 mi SE 9.2 mph - N/A   Clear
10:55 PM 67.5 °F 55.4 °F 65% 29.97 in 10.0 mi ESE 8.1 mph - N/A   Clear
11:15 PM 67.1 °F 55.4 °F 66% 29.97 in 10.0 mi SE 5.8 mph - N/A   Clear
11:35 PM 66.4 °F 55.4 °F 68% 29.97 in 10.0 mi SE 8.1 mph - N/A   Clear
11:55 PM 66.4 °F 55.9 °F 69% 29.97 in 10.0 mi SE 8.1 mph - N/A   Clear